TimeCDT,TemperatureF,Dew PointF,Humidity,Sea Level PressureIn,VisibilityMPH,Wind Direction,Wind SpeedMPH,Gust SpeedMPH,PrecipitationIn,Events,Conditions,WindDirDegrees,DateUTC
12:15 AM,44.6,39.2,81,30.27,10.0,Calm,Calm,-,N/A,,Clear,0,2013-08-04 05:15:00
12:35 AM,44.6,37.4,76,30.27,10.0,Calm,Calm,-,N/A,,Clear,0,2013-08-04 05:35:00
12:55 AM,44.6,39.2,81,30.28,10.0,Calm,Calm,-,N/A,,Clear,0,2013-08-04 05:55:00
1:15 AM,42.8,37.4,81,30.27,10.0,Calm,Calm,-,N/A,,Clear,0,2013-08-04 06:15:00
1:35 AM,42.8,33.8,70,30.28,10.0,Calm,Calm,-,N/A,,Clear,0,2013-08-04 06:35:00
1:55 AM,42.8,37.4,81,30.27,10.0,Calm,Calm,-,N/A,,Clear,0,2013-08-04 06:55:00
2:15 AM,42.8,33.8,70,30.26,10.0,Calm,Calm,-,N/A,,Clear,0,2013-08-04 07:15:00
2:35 AM,42.8,33.8,70,30.25,10.0,Calm,Calm,-,N/A,,Clear,0,2013-08-04 07:35:00
2:55 AM,44.6,37.4,76,30.25,10.0,Calm,Calm,-,N/A,,Clear,0,2013-08-04 07:55:00
3:15 AM,46.4,37.4,71,30.25,10.0,Calm,Calm,-,N/A,,Clear,0,2013-08-04 08:15:00
3:35 AM,44.6,37.4,76,30.24,10.0,Calm,Calm,-,N/A,,Clear,0,2013-08-04 08:35:00
3:55 AM,44.6,37.4,76,30.24,10.0,Calm,Calm,-,N/A,,Clear,0,2013-08-04 08:55:00
4:15 AM,44.6,39.2,81,30.23,10.0,Calm,Calm,-,N/A,,Clear,0,2013-08-04 09:15:00
4:35 AM,44.6,39.2,81,30.23,10.0,Calm,Calm,-,N/A,,Clear,0,2013-08-04 09:35:00
4:55 AM,44.6,39.2,81,30.23,10.0,Calm,Calm,-,N/A,,Clear,0,2013-08-04 09:55:00
5:15 AM,44.6,39.2,81,30.23,10.0,Calm,Calm,-,N/A,,Clear,0,2013-08-04 10:15:00
5:35 AM,44.6,39.2,81,30.23,10.0,Calm,Calm,-,N/A,,Clear,0,2013-08-04 10:35:00
5:55 AM,44.6,39.2,81,30.23,10.0,Calm,Calm,-,N/A,,Clear,0,2013-08-04 10:55:00
6:15 AM,46.4,41.0,81,30.24,10.0,Calm,Calm,-,N/A,,Clear,0,2013-08-04 11:15:00
6:35 AM,46.4,41.0,81,30.24,10.0,Calm,Calm,-,N/A,,Clear,0,2013-08-04 11:35:00
6:55 AM,46.4,42.8,87,30.23,10.0,Calm,Calm,-,N/A,,Clear,0,2013-08-04 11:55:00
7:15 AM,51.8,46.4,82,30.22,10.0,Calm,Calm,-,N/A,,Clear,0,2013-08-04 12:15:00
7:35 AM,53.6,46.4,77,30.22,10.0,Calm,Calm,-,N/A,,Clear,0,2013-08-04 12:35:00
7:55 AM,55.4,48.2,77,30.22,10.0,SE,4.6,-,N/A,,Clear,130,2013-08-04 12:55:00
8:15 AM,57.2,51.8,82,30.22,10.0,SE,4.6,-,N/A,,Clear,130,2013-08-04 13:15:00
8:35 AM,57.2,51.8,82,30.22,10.0,SE,6.9,-,N/A,,Clear,140,2013-08-04 13:35:00
8:55 AM,57.2,51.8,82,30.22,10.0,SSE,3.5,-,N/A,,Clear,150,2013-08-04 13:55:00
9:15 AM,57.2,48.2,72,30.22,10.0,SSE,6.9,-,N/A,,Clear,160,2013-08-04 14:15:00
9:35 AM,60.8,48.2,63,30.22,10.0,SSE,8.1,-,N/A,,Clear,150,2013-08-04 14:35:00
9:55 AM,60.8,48.2,63,30.22,10.0,SSE,8.1,-,N/A,,Clear,160,2013-08-04 14:55:00
10:15 AM,62.6,50.0,63,30.22,10.0,SSE,8.1,-,N/A,,Clear,150,2013-08-04 15:15:00
10:35 AM,64.4,48.2,56,30.21,10.0,SSE,6.9,-,N/A,,Clear,160,2013-08-04 15:35:00
10:55 AM,66.2,51.8,60,30.21,10.0,SSE,8.1,-,N/A,,Clear,160,2013-08-04 15:55:00
11:15 AM,68.0,48.2,49,30.21,10.0,SSE,10.4,-,N/A,,Clear,160,2013-08-04 16:15:00
11:35 AM,66.2,46.4,49,30.20,10.0,SSE,6.9,-,N/A,,Clear,150,2013-08-04 16:35:00
11:55 AM,66.2,46.4,49,30.20,10.0,SSE,9.2,-,N/A,,Clear,160,2013-08-04 16:55:00
12:15 PM,66.2,46.4,49,30.20,10.0,South,9.2,-,N/A,,Clear,170,2013-08-04 17:15:00
12:35 PM,66.2,46.4,49,30.19,10.0,SSW,8.1,-,N/A,,Clear,200,2013-08-04 17:35:00
12:55 PM,66.2,48.2,52,30.18,10.0,South,9.2,-,N/A,,Clear,180,2013-08-04 17:55:00
1:15 PM,69.8,48.2,46,30.17,10.0,SSW,9.2,-,N/A,,Clear,200,2013-08-04 18:15:00
1:35 PM,69.8,46.4,43,30.17,10.0,SSW,5.8,-,N/A,,Clear,200,2013-08-04 18:35:00
1:55 PM,71.6,46.4,41,30.16,10.0,South,4.6,-,N/A,,Clear,180,2013-08-04 18:55:00
2:15 PM,71.6,48.2,43,30.16,10.0,South,8.1,-,N/A,,Scattered Clouds,180,2013-08-04 19:15:00
2:35 PM,69.8,48.2,46,30.15,10.0,South,5.8,-,N/A,,Scattered Clouds,190,2013-08-04 19:35:00
2:55 PM,71.6,48.2,43,30.14,10.0,SSW,8.1,-,N/A,,Scattered Clouds,210,2013-08-04 19:55:00
3:15 PM,71.6,46.4,41,30.13,10.0,South,4.6,-,N/A,,Scattered Clouds,190,2013-08-04 20:15:00
3:35 PM,71.6,46.4,41,30.13,10.0,SSE,8.1,-,N/A,,Clear,160,2013-08-04 20:35:00
3:55 PM,73.4,46.4,38,30.12,10.0,South,4.6,-,N/A,,Scattered Clouds,180,2013-08-04 20:55:00
4:15 PM,71.6,46.4,41,30.11,10.0,South,6.9,-,N/A,,Mostly Cloudy,190,2013-08-04 21:15:00
4:35 PM,71.6,46.4,41,30.10,10.0,Calm,Calm,-,N/A,,Overcast,0,2013-08-04 21:35:00
4:55 PM,71.6,48.2,43,30.09,10.0,Calm,Calm,-,N/A,,Overcast,0,2013-08-04 21:55:00
5:15 PM,75.2,48.2,38,30.08,10.0,South,6.9,-,N/A,,Mostly Cloudy,180,2013-08-04 22:15:00
5:35 PM,73.4,48.2,41,30.07,10.0,SE,6.9,-,N/A,,Clear,140,2013-08-04 22:35:00
5:55 PM,71.6,48.2,43,30.05,10.0,SE,3.5,-,N/A,,Scattered Clouds,140,2013-08-04 22:55:00
6:15 PM,71.6,48.2,43,30.03,10.0,SE,8.1,-,N/A,,Mostly Cloudy,130,2013-08-04 23:15:00
6:35 PM,73.4,48.2,41,30.03,10.0,SE,5.8,-,N/A,,Scattered Clouds,130,2013-08-04 23:35:00
6:55 PM,73.4,48.2,41,30.03,10.0,SE,9.2,-,N/A,,Scattered Clouds,130,2013-08-04 23:55:00
7:14 PM,69.8,46.4,43,30.02,10.0,SE,6.9,-,N/A,,Mostly Cloudy,130,2013-08-05 00:14:00
7:35 PM,68.0,48.2,49,30.02,10.0,SE,5.8,-,N/A,,Mostly Cloudy,140,2013-08-05 00:35:00
7:55 PM,66.2,50.0,56,30.01,10.0,SE,5.8,-,N/A,,Mostly Cloudy,140,2013-08-05 00:55:00
8:14 PM,66.2,48.2,52,30.00,10.0,SE,6.9,-,N/A,,Mostly Cloudy,140,2013-08-05 01:14:00
8:35 PM,64.4,46.4,52,29.99,10.0,ESE,4.6,-,N/A,,Scattered Clouds,120,2013-08-05 01:35:00
8:55 PM,62.6,46.4,55,29.98,10.0,ESE,3.5,-,N/A,,Clear,120,2013-08-05 01:55:00
9:14 PM,62.6,48.2,59,29.99,10.0,Calm,Calm,-,N/A,,Mostly Cloudy,0,2013-08-05 02:14:00
9:35 PM,62.6,51.8,68,29.99,10.0,SSE,8.1,-,N/A,,Overcast,150,2013-08-05 02:35:00
9:55 PM,62.6,51.8,68,29.98,10.0,SE,5.8,-,N/A,Thunderstorm,Overcast,140,2013-08-05 02:55:00
10:14 PM,62.6,51.8,68,29.99,10.0,SSE,4.6,-,N/A,,Overcast,150,2013-08-05 03:14:00
10:35 PM,62.6,50.0,63,29.99,10.0,SE,3.5,-,N/A,,Overcast,140,2013-08-05 03:35:00
10:55 PM,62.6,51.8,68,29.97,10.0,Calm,Calm,-,N/A,,Overcast,0,2013-08-05 03:55:00
11:15 PM,62.6,53.6,72,29.97,10.0,SSE,4.6,-,N/A,Thunderstorm,Unknown,150,2013-08-05 04:15:00
11:35 PM,60.8,53.6,77,29.96,10.0,SSE,5.8,-,N/A,,Overcast,160,2013-08-05 04:35:00
11:55 PM,60.8,55.4,82,29.95,10.0,SSE,8.1,-,N/A,,Overcast,160,2013-08-05 04:55:00